Showing default

PUCP-SAT 1, 39442

Orbit data source: Space-Track

PUCP-SAT 1, 39442 is a payload satellite owned by PUCP (PE) in SSO that was launched on Thu, 21 Nov 2013 UTC via a DNEPR launch vehicle from the Orenburg, Russia (OREN). Payload-class satellites include a variety of spacecraft equipped with specific instruments for various scientific and technological missions. These include communications satellites like Starlink; space stations such as the ISS; scientific satellites like the Hubble; Earth observation satellites from companies like Planet Labs, Umbra, and HawkEye 360; GPS; miniature CubeSats for education and research; and military/defense satellites.

Loading next visibility...
Identifier
39442, 2013-066AC
Orbit
SSO
Country
Flag of PEPE / PER
Related business
Manufacturer
PUCP
Mission
Non-operational Amateur Technology
Bus & Motor
CUBESAT 1U, Unknown motor
Mass
1.173 kg wet, 1.173 kg dry
Launch date (UTC)
2013-11-21 (12 years ago)
Launch vehicle
DNEPR
Launch site
Orenburg, Russia (OREN)
Object type
Payload
Rocket body
Debris
Shape & HBR
Box, 0.1 m
Radar Cross Section
0.015 m², Small (<0.1 m²)

Expand to show TLE details & history
Last TLE update: 9 hours ago

TLE from 9 hours ago
0 PUCP-SAT 1
1 39442U 13066AC  25300.95695442  .00023494  00000-0  99228-3 0  9997
2 39442  97.5692 286.2959 0020801  48.8220 311.4806 15.23060104648797
Epoch: 2025-10-27T22:58Z
TLE epoch observation values (Epoch: 2025-10-27T22:58:00.861Z)
Latitude
-0.00006°
Longitude
-94.75903°
Altitude
490.249 km
Speed
7.625 km/s
True Right ascension
19h 05m 11s
True Declination
0° 00' 00"
Sunlit
Object was in daylight at epoch
Visualization orbit readout
Latitude
Unknown
Longitude
Unknown
Altitude
Unknown
Speed
Unknown
Apparent Right ascension
Unknown
Apparent Declination
Unknown
Sunlit
N/A
Visualization observer readout
Local Sidereal Time
03:20:42
Azimuth
Unknown
Elevation
Unknown
Doppler factor
Unknown
Orbital elements
Apogee altitude
507.879 km
Perigee altitude
479.292 km
Semi-major axis
6,871.723 km
Eccentricity
0.00208
Inclination
97.5692°
RAAN
286.2959°
Arg. of periapsis
48.822°
True anomaly
311.30172°
Mean anomaly
311.4806°
Eccentric anomaly
311.39119°
Mean motion
3.81017 °/min
Orbital period
94.48 mins
BSTAR
0.00099228
Loading maneuver chart data...
Computing Atmospheric mass density...
Loading historical data...
Loading historical data...
Loading historical data...
Loading historical data...
Loading historical data...
Loading historical data...
Loading historical data...

Documentation

Showing up to 5 results
|